User: anonymous   Login
Location: Bretagne
(43.8474°N, 0.4650°W)
Time: 06:15:21
(UTC+00:00)
Language:

Cosmos 909 Rocket - Orbit

View from above orbital plane
View from above orbital plane
View from above satellite
View from above satellite

Ground track
Ground track

The orbit is defined by the following mean orbital elements,

1 10011U          26067.92615632 +.00000000 +00000-0 -83172-5 0 00008
2 10011  65.8632 286.5607 0692200  75.2550  14.0127 12.32267042    06
Epoch (UTC): 08 March 2026 22:13:39
Eccentricity: 0.0692200
inclination: 65.8632°
perigee height: 991 km
apogee height: 2088 km
right ascension of ascending node: 286.5607°
argument of perigee: 75.2550°
revolutions per day: 12.32267042
mean anomaly at epoch: 14.0127°

The dashed part of the orbit path shows where the satellite is in the earth's shadow,  

DLR